User: anonymous   Login
Location: Unspecified
(0.0000°N, 0.0000°E)
Time: 06:04:23
(UTC+02:00)
Language:

Orbus 21S - Orbit

View from above orbital plane
View from above orbital plane
View from above satellite
View from above satellite

Ground track
Ground track

The orbit data is extracted from the following two-line orbital elements,

1 20669U 90056C   15209.47336435  .00000758  00000-0  46243-3 0  9997
2 20669 024.5863 014.8416 7124703 247.7756 079.1940 02.45973088210345
Epoch (UTC): 28 July 2015 11:21:38
Eccentricity: 0.7124703
inclination: 24.5863°
perigee height: 287 km
apogee height: 33319 km
right ascension of ascending node: 14.8416°
argument of perigee: 247.7756°
revolutions per day: 2.45973088
mean anomaly at epoch: 79.1940°
orbit number at epoch: 21034

The dashed part of the orbit path shows where the satellite is in the earth's shadow,  

DLR